﻿測定場所 (Monitoring sites),日付 (Measurement date),時間 (Measurement time),線量率 最大値 (max) μGy/h,線量率 最小値 (min) μGy/h,線量率 平均値 (average) μGy/h,
江戸川 (Edogawa),2013-01-20,23:01～24:00,0.0988,0.0875,0.0926,
江戸川 (Edogawa),2013-01-20,22:01～23:00,0.100,0.0864,0.0930,
江戸川 (Edogawa),2013-01-20,21:01～22:00,0.100,0.0868,0.0932,
江戸川 (Edogawa),2013-01-20,20:01～21:00,0.100,0.0858,0.0933,
江戸川 (Edogawa),2013-01-20,19:01～20:00,0.0990,0.0878,0.0929,
江戸川 (Edogawa),2013-01-20,18:01～19:00,0.0987,0.0884,0.0923,
江戸川 (Edogawa),2013-01-20,17:01～18:00,0.0984,0.0876,0.0930,
江戸川 (Edogawa),2013-01-20,16:01～17:00,0.0990,0.0853,0.0930,
江戸川 (Edogawa),2013-01-20,15:01～16:00,0.101,0.0891,0.0940,
江戸川 (Edogawa),2013-01-20,14:01～15:00,0.0989,0.0899,0.0937,
江戸川 (Edogawa),2013-01-20,13:01～14:00,0.100,0.0889,0.0944,
江戸川 (Edogawa),2013-01-20,12:01～13:00,0.100,0.0880,0.0940,
江戸川 (Edogawa),2013-01-20,11:01～12:00,0.102,0.0872,0.0937,
江戸川 (Edogawa),2013-01-20,10:01～11:00,0.0995,0.0885,0.0933,
江戸川 (Edogawa),2013-01-20,09:01～10:00,0.0979,0.0868,0.0924,
江戸川 (Edogawa),2013-01-20,08:01～09:00,0.0966,0.0851,0.0914,
江戸川 (Edogawa),2013-01-20,07:01～08:00,0.0985,0.0853,0.0915,
江戸川 (Edogawa),2013-01-20,06:01～07:00,0.100,0.0867,0.0920,
江戸川 (Edogawa),2013-01-20,05:01～06:00,0.0955,0.0853,0.0916,
江戸川 (Edogawa),2013-01-20,04:01～05:00,0.0984,0.0857,0.0922,
江戸川 (Edogawa),2013-01-20,03:01～04:00,0.0978,0.0859,0.0920,
江戸川 (Edogawa),2013-01-20,02:01～03:00,0.0980,0.0822,0.0918,
江戸川 (Edogawa),2013-01-20,01:01～02:00,0.0974,0.0881,0.0922,
江戸川 (Edogawa),2013-01-20,00:01～01:00,0.0989,0.0858,0.0920,
江戸川 (Edogawa),2013-01-19,23:01～24:00,0.0994,0.0875,0.0924,
江戸川 (Edogawa),2013-01-19,22:01～23:00,0.0975,0.0873,0.0921,
江戸川 (Edogawa),2013-01-19,21:01～22:00,0.0982,0.0864,0.0920,
江戸川 (Edogawa),2013-01-19,20:01～21:00,0.0975,0.0868,0.0918,
江戸川 (Edogawa),2013-01-19,19:01～20:00,0.0989,0.0848,0.0919,
江戸川 (Edogawa),2013-01-19,18:01～19:00,0.101,0.0871,0.0925,
江戸川 (Edogawa),2013-01-19,17:01～18:00,0.100,0.0867,0.0927,
江戸川 (Edogawa),2013-01-19,16:01～17:00,0.100,0.0889,0.0937,
江戸川 (Edogawa),2013-01-19,15:01～16:00,0.0991,0.0878,0.0927,
江戸川 (Edogawa),2013-01-19,14:01～15:00,0.0999,0.0856,0.0925,
江戸川 (Edogawa),2013-01-19,13:01～14:00,0.0994,0.0861,0.0928,
江戸川 (Edogawa),2013-01-19,12:01～13:00,0.100,0.0868,0.0927,
江戸川 (Edogawa),2013-01-19,11:01～12:00,0.0990,0.0879,0.0926,
江戸川 (Edogawa),2013-01-19,10:01～11:00,0.0993,0.0848,0.0913,
江戸川 (Edogawa),2013-01-19,09:01～10:00,0.0972,0.0830,0.0909,
江戸川 (Edogawa),2013-01-19,08:01～09:00,0.0977,0.0854,0.0903,
江戸川 (Edogawa),2013-01-19,07:01～08:00,0.0975,0.0834,0.0899,
江戸川 (Edogawa),2013-01-19,06:01～07:00,0.0956,0.0854,0.0902,
江戸川 (Edogawa),2013-01-19,05:01～06:00,0.0956,0.0852,0.0899,
江戸川 (Edogawa),2013-01-19,04:01～05:00,0.0969,0.0847,0.0905,
江戸川 (Edogawa),2013-01-19,03:01～04:00,0.0977,0.0838,0.0906,
江戸川 (Edogawa),2013-01-19,02:01～03:00,0.0955,0.0857,0.0899,
江戸川 (Edogawa),2013-01-19,01:01～02:00,0.0951,0.0848,0.0905,
江戸川 (Edogawa),2013-01-19,00:01～01:00,0.0959,0.0851,0.0901,
江戸川 (Edogawa),2013-01-18,23:01～24:00,0.0951,0.0853,0.0904,
江戸川 (Edogawa),2013-01-18,22:01～23:00,0.0952,0.0857,0.0909,
江戸川 (Edogawa),2013-01-18,21:01～22:00,0.0991,0.0853,0.0903,
江戸川 (Edogawa),2013-01-18,20:01～21:00,0.0956,0.0850,0.0905,
江戸川 (Edogawa),2013-01-18,19:01～20:00,0.0973,0.0854,0.0908,
江戸川 (Edogawa),2013-01-18,18:01～19:00,0.0950,0.0853,0.0900,
江戸川 (Edogawa),2013-01-18,17:01～18:00,0.0953,0.0858,0.0904,
江戸川 (Edogawa),2013-01-18,16:01～17:00,0.0963,0.0869,0.0909,
江戸川 (Edogawa),2013-01-18,15:01～16:00,0.0982,0.0861,0.0908,
江戸川 (Edogawa),2013-01-18,14:01～15:00,0.0962,0.0854,0.0901,
江戸川 (Edogawa),2013-01-18,13:01～14:00,0.0961,0.0837,0.0900,
江戸川 (Edogawa),2013-01-18,12:01～13:00,0.0953,0.0821,0.0896,
江戸川 (Edogawa),2013-01-18,11:01～12:00,0.0969,0.0818,0.0891,
江戸川 (Edogawa),2013-01-18,10:01～11:00,0.0939,0.0834,0.0889,
江戸川 (Edogawa),2013-01-18,09:01～10:00,0.0938,0.0821,0.0879,
江戸川 (Edogawa),2013-01-18,08:01～09:00,0.0933,0.0825,0.0884,
江戸川 (Edogawa),2013-01-18,07:01～08:00,0.0966,0.0835,0.0882,
江戸川 (Edogawa),2013-01-18,06:01～07:00,0.0976,0.0836,0.0880,
江戸川 (Edogawa),2013-01-18,05:01～06:00,0.0922,0.0822,0.0884,
江戸川 (Edogawa),2013-01-18,04:01～05:00,0.0939,0.0818,0.0881,
江戸川 (Edogawa),2013-01-18,03:01～04:00,0.0938,0.0849,0.0888,
江戸川 (Edogawa),2013-01-18,02:01～03:00,0.0945,0.0837,0.0889,
江戸川 (Edogawa),2013-01-18,01:01～02:00,0.0934,0.0839,0.0890,
江戸川 (Edogawa),2013-01-18,00:01～01:00,0.0945,0.0845,0.0890,
江戸川 (Edogawa),2013-01-17,23:01～24:00,0.0945,0.0846,0.0886,
江戸川 (Edogawa),2013-01-17,22:01～23:00,0.0993,0.0839,0.0892,
江戸川 (Edogawa),2013-01-17,21:01～22:00,0.0956,0.0841,0.0892,
江戸川 (Edogawa),2013-01-17,20:01～21:00,0.0950,0.0832,0.0892,
江戸川 (Edogawa),2013-01-17,19:01～20:00,0.0933,0.0823,0.0886,
江戸川 (Edogawa),2013-01-17,18:01～19:00,0.0941,0.0826,0.0885,
江戸川 (Edogawa),2013-01-17,17:01～18:00,0.0959,0.0839,0.0888,
江戸川 (Edogawa),2013-01-17,16:01～17:00,0.0940,0.0836,0.0894,
江戸川 (Edogawa),2013-01-17,15:01～16:00,0.0943,0.0816,0.0892,
江戸川 (Edogawa),2013-01-17,14:01～15:00,0.0955,0.0818,0.0886,
江戸川 (Edogawa),2013-01-17,13:01～14:00,0.0937,0.0795,0.0879,
江戸川 (Edogawa),2013-01-17,12:01～13:00,0.0934,0.0817,0.0874,
江戸川 (Edogawa),2013-01-17,11:01～12:00,0.0913,0.0813,0.0861,
江戸川 (Edogawa),2013-01-17,10:01～11:00,0.0910,0.0769,0.0852,
江戸川 (Edogawa),2013-01-17,09:01～10:00,0.0924,0.0795,0.0848,
江戸川 (Edogawa),2013-01-17,08:01～09:00,0.0889,0.0790,0.0843,
江戸川 (Edogawa),2013-01-17,07:01～08:00,0.0918,0.0797,0.0852,
江戸川 (Edogawa),2013-01-17,06:01～07:00,0.0917,0.0808,0.0853,
江戸川 (Edogawa),2013-01-17,05:01～06:00,0.0903,0.0800,0.0850,
江戸川 (Edogawa),2013-01-17,04:01～05:00,0.0899,0.0791,0.0844,
江戸川 (Edogawa),2013-01-17,03:01～04:00,0.0900,0.0786,0.0843,
江戸川 (Edogawa),2013-01-17,02:01～03:00,0.0897,0.0792,0.0847,
江戸川 (Edogawa),2013-01-17,01:01～02:00,0.0923,0.0792,0.0844,
江戸川 (Edogawa),2013-01-17,00:01～01:00,0.0902,0.0783,0.0839,
江戸川 (Edogawa),2013-01-16,23:01～24:00,0.0911,0.0788,0.0841,
江戸川 (Edogawa),2013-01-16,22:01～23:00,0.0893,0.0777,0.0848,
江戸川 (Edogawa),2013-01-16,21:01～22:00,0.0895,0.0792,0.0842,
江戸川 (Edogawa),2013-01-16,20:01～21:00,0.0906,0.0796,0.0844,
江戸川 (Edogawa),2013-01-16,19:01～20:00,0.0897,0.0807,0.0844,
江戸川 (Edogawa),2013-01-16,18:01～19:00,0.0888,0.0785,0.0844,
江戸川 (Edogawa),2013-01-16,17:01～18:00,0.101,0.0795,0.0845,
江戸川 (Edogawa),2013-01-16,16:01～17:00,0.0902,0.0788,0.0849,
江戸川 (Edogawa),2013-01-16,15:01～16:00,0.0891,0.0793,0.0846,
江戸川 (Edogawa),2013-01-16,14:01～15:00,0.0891,0.0766,0.0835,
江戸川 (Edogawa),2013-01-16,13:01～14:00,0.0863,0.0784,0.0819,
江戸川 (Edogawa),2013-01-16,12:01～13:00,0.0868,0.0759,0.0821,
江戸川 (Edogawa),2013-01-16,11:01～12:00,0.0866,0.0763,0.0818,
江戸川 (Edogawa),2013-01-16,10:01～11:00,0.0868,0.0761,0.0812,
江戸川 (Edogawa),2013-01-16,09:01～10:00,0.0845,0.0748,0.0805,
江戸川 (Edogawa),2013-01-16,08:01～09:00,0.0854,0.0726,0.0800,
江戸川 (Edogawa),2013-01-16,07:01～08:00,0.0846,0.0730,0.0797,
江戸川 (Edogawa),2013-01-16,06:01～07:00,0.0888,0.0742,0.0792,
江戸川 (Edogawa),2013-01-16,05:01～06:00,0.0866,0.0743,0.0796,
江戸川 (Edogawa),2013-01-16,04:01～05:00,0.0836,0.0734,0.0788,
江戸川 (Edogawa),2013-01-16,03:01～04:00,0.0844,0.0732,0.0787,
江戸川 (Edogawa),2013-01-16,02:01～03:00,0.0850,0.0727,0.0794,
江戸川 (Edogawa),2013-01-16,01:01～02:00,0.0840,0.0744,0.0796,
江戸川 (Edogawa),2013-01-16,00:01～01:00,0.0827,0.0738,0.0784,
江戸川 (Edogawa),2013-01-15,23:01～24:00,0.0841,0.0732,0.0786,
江戸川 (Edogawa),2013-01-15,22:01～23:00,0.0844,0.0739,0.0789,
江戸川 (Edogawa),2013-01-15,21:01～22:00,0.0841,0.0724,0.0784,
江戸川 (Edogawa),2013-01-15,20:01～21:00,0.0860,0.0741,0.0788,
江戸川 (Edogawa),2013-01-15,19:01～20:00,0.0818,0.0724,0.0775,
江戸川 (Edogawa),2013-01-15,18:01～19:00,0.0818,0.0721,0.0764,
江戸川 (Edogawa),2013-01-15,17:01～18:00,0.0810,0.0728,0.0757,
江戸川 (Edogawa),2013-01-15,16:01～17:00,0.0788,0.0706,0.0739,
江戸川 (Edogawa),2013-01-15,15:01～16:00,0.0757,0.0686,0.0726,
江戸川 (Edogawa),2013-01-15,14:01～15:00,0.0736,0.0654,0.0703,
江戸川 (Edogawa),2013-01-15,13:01～14:00,0.0716,0.0618,0.0664,
江戸川 (Edogawa),2013-01-15,12:01～13:00,0.0690,0.0614,0.0643,
江戸川 (Edogawa),2013-01-15,11:01～12:00,0.0674,0.0620,0.0647,
江戸川 (Edogawa),2013-01-15,10:01～11:00,0.0679,0.0610,0.0648,
江戸川 (Edogawa),2013-01-15,09:01～10:00,0.0683,0.0611,0.0640,
江戸川 (Edogawa),2013-01-15,08:01～09:00,0.0658,0.0610,0.0632,
江戸川 (Edogawa),2013-01-15,07:01～08:00,0.0650,0.0581,0.0622,
江戸川 (Edogawa),2013-01-15,06:01～07:00,0.0645,0.0583,0.0618,
江戸川 (Edogawa),2013-01-15,05:01～06:00,0.0645,0.0580,0.0610,
江戸川 (Edogawa),2013-01-15,04:01～05:00,0.0637,0.0566,0.0607,
江戸川 (Edogawa),2013-01-15,03:01～04:00,0.0641,0.0563,0.0605,
江戸川 (Edogawa),2013-01-15,02:01～03:00,0.0628,0.0576,0.0601,
江戸川 (Edogawa),2013-01-15,01:01～02:00,0.0621,0.0563,0.0594,
江戸川 (Edogawa),2013-01-15,00:01～01:00,0.0622,0.0557,0.0589,
江戸川 (Edogawa),2013-01-14,23:01～24:00,0.0616,0.0549,0.0583,
江戸川 (Edogawa),2013-01-14,22:01～23:00,0.0626,0.0548,0.0583,
江戸川 (Edogawa),2013-01-14,21:01～22:00,0.0636,0.0576,0.0604,
江戸川 (Edogawa),2013-01-14,20:01～21:00,0.0666,0.0595,0.0629,
江戸川 (Edogawa),2013-01-14,19:01～20:00,0.0725,0.0616,0.0677,
江戸川 (Edogawa),2013-01-14,18:01～19:00,0.0736,0.0647,0.0688,
江戸川 (Edogawa),2013-01-14,17:01～18:00,0.0837,0.0707,0.0738,
江戸川 (Edogawa),2013-01-14,16:01～17:00,0.0825,0.0700,0.0760,
江戸川 (Edogawa),2013-01-14,15:01～16:00,0.0902,0.0736,0.0824,
江戸川 (Edogawa),2013-01-14,14:01～15:00,0.0969,0.0824,0.0892,
江戸川 (Edogawa),2013-01-14,13:01～14:00,0.107,0.0874,0.0956,
江戸川 (Edogawa),2013-01-14,12:01～13:00,0.109,0.0941,0.102,
江戸川 (Edogawa),2013-01-14,11:01～12:00,0.117,0.103,0.109,
江戸川 (Edogawa),2013-01-14,10:01～11:00,0.118,0.102,0.111,
江戸川 (Edogawa),2013-01-14,09:01～10:00,0.114,0.101,0.107,
江戸川 (Edogawa),2013-01-14,08:01～09:00,0.115,0.102,0.109,
江戸川 (Edogawa),2013-01-14,07:01～08:00,0.115,0.100,0.110,
江戸川 (Edogawa),2013-01-14,06:01～07:00,0.115,0.100,0.109,
江戸川 (Edogawa),2013-01-14,05:01～06:00,0.115,0.0992,0.107,
江戸川 (Edogawa),2013-01-14,04:01～05:00,0.114,0.101,0.108,
江戸川 (Edogawa),2013-01-14,03:01～04:00,0.111,0.0941,0.101,
江戸川 (Edogawa),2013-01-14,02:01～03:00,0.102,0.0919,0.0972,
江戸川 (Edogawa),2013-01-14,01:01～02:00,0.102,0.0890,0.0969,
江戸川 (Edogawa),2013-01-14,00:01～01:00,0.103,0.0913,0.0965,
